Location: Cantaing
(50.1487°N, 3.1675°E)
Time: 23:41:11
(UTC+00:00)

Cosmos 2082 Rocket - Pass Details

Date: 19 April 2026
Orbit: 831 x 853 km, 71.0° (Epoch: 19 May)

Event Time Altitude Azimuth Distance (km) Brightness Sun altitude
Exits shadow 00:01:57 16° 96° (E) 2,080 4.2 -28.7°
Drops below altitude 10° 00:05:09 10° 61° (ENE) 2,490 5.0 -28.6°
Sets 00:08:32 0° 42° (NE) 3,432 6.1 -28.6°
